Millbury, OH

1:52 PM EST on December 10, 2016 (GMT -0500)
Metcalf

Weather History for KTDZ - April, 2013

Change the Weather History Date:

Sunday, April 28, 2013

  Actual Average (KTOL) Record (KTOL)
Temperature  
Mean Temperature 54 °F -  
Max Temperature 60 °F 63 °F 84 °F (1990)
Min Temperature 48 °F 40 °F 23 °F (1946)
Degree Days  
Heating Degree Days 11    
Growing Degree Days 4 (Base 50)    
Moisture  
Dew Point 53 °F    
Average Humidity 90    
Maximum Humidity 100    
Minimum Humidity 61    
Precipitation  
Precipitation 0.33 in - - ()
Sea Level Pressure  
Sea Level Pressure 29.90 in    
Wind  
Wind Speed 5 mph (SE)    
Max Wind Speed 12 mph    
Max Gust Speed -    
Visibility 6 miles    
Events Rain    
Averages and records for this station are not official NWS values.
T = Trace of Precipitation, MM = Missing Value Source: NWS Daily Summary

Daily Weather History Graph

Daily Weather History Graph

Search for Another Location

Airport or City:

Trip Planner

Search our weather history database for the weather conditions in past years. The results will help you decide how hot, cold, wet, or windy it might be!

Date:

Astronomy

Apr. 28, 2013 Rise Set
Actual Time 6:34 AM EDT 8:28 PM EDT
Civil Twilight 6:04 AM EDT 8:58 PM EDT
Nautical Twilight 5:28 AM EDT 9:35 PM EDT
Astronomical Twilight 4:48 AM EDT 10:15 PM EDT
Moon 11:59 PM EDT (4/28) 8:48 AM EDT (4/28)
Length of Visible Light 14h 54m
Length of Day
13h 54m
Waning Gibbous, 89% of the Moon is Illuminated
Apr 28
Waning Gibbous
May 2
Last Quarter
May 9
New
May 18
First Quarter
May 25
Full

Hourly Weather History & Observations

Time (EDT) Temp. Dew Point Humidity Pressure Visibility Wind Dir Wind Speed Gust Speed Precip Events Conditions
12:53 AM 48.9 °F 37.9 °F 66% 30.10 in 10.0 mi Calm Calm - N/A   Overcast
1:53 AM 50.0 °F 37.0 °F 61% 30.08 in 10.0 mi Calm Calm - N/A   Mostly Cloudy
2:53 AM 50.0 °F 39.9 °F 68% 30.04 in 10.0 mi Calm Calm - N/A   Clear
3:53 AM 50.0 °F 39.0 °F 66% 30.01 in 10.0 mi East 3.5 mph - N/A   Overcast
4:53 AM 51.1 °F 39.0 °F 63% 30.01 in 10.0 mi NNE 3.5 mph - N/A   Overcast
5:53 AM 51.1 °F 41.0 °F 68% 30.00 in 10.0 mi ENE 5.8 mph - N/A   Overcast
6:53 AM 51.1 °F 44.1 °F 77% 29.99 in 10.0 mi ENE 4.6 mph - 0.02 in Rain Light Rain
7:53 AM 51.1 °F 46.9 °F 86% 29.99 in 5.0 mi ESE 8.1 mph - 0.02 in Rain Light Rain
9:03 AM 51.8 °F 48.2 °F 88% 29.98 in 4.0 mi ESE 9.2 mph - 0.03 in Rain Rain
9:53 AM 52.0 °F 48.9 °F 89% 29.97 in 4.0 mi ESE 9.2 mph - 0.13 in Rain Light Rain
10:05 AM 51.8 °F 50.0 °F 94% 29.96 in 5.0 mi ESE 10.4 mph - 0.01 in Rain Light Rain
10:48 AM 53.6 °F 51.8 °F 94% 29.95 in 4.0 mi ESE 10.4 mph - 0.03 in Rain Light Rain
10:53 AM 53.1 °F 51.1 °F 93% 29.95 in 4.0 mi ESE 10.4 mph - 0.03 in Rain Light Rain
11:15 AM 55.4 °F 51.8 °F 88% 29.94 in 5.0 mi ESE 11.5 mph - 0.01 in Rain Light Rain
11:53 AM 55.9 °F 53.1 °F 90% 29.94 in 9.0 mi SE 11.5 mph - 0.01 in   Overcast
12:53 PM 57.0 °F 54.0 °F 89% 29.92 in 10.0 mi SSE 11.5 mph - 0.01 in   Overcast
1:10 PM 57.2 °F 53.6 °F 88% 29.91 in 7.0 mi SSE 11.5 mph - N/A   Overcast
1:32 PM 57.2 °F 53.6 °F 88% 29.90 in 10.0 mi SSE 10.4 mph - N/A   Overcast
1:53 PM 57.9 °F 55.0 °F 90% 29.90 in 10.0 mi SE 8.1 mph - N/A   Overcast
2:53 PM 57.9 °F 55.0 °F 90% 29.89 in 10.0 mi SSE 8.1 mph - N/A   Overcast
3:40 PM 59.0 °F 55.4 °F 88% 29.87 in 10.0 mi SE 8.1 mph - N/A   Overcast
3:53 PM 59.0 °F 55.0 °F 87% 29.87 in 10.0 mi SE 8.1 mph - N/A   Overcast
4:53 PM 57.9 °F 55.9 °F 93% 29.86 in 9.0 mi ESE 6.9 mph - N/A   Overcast
5:12 PM 57.2 °F 55.4 °F 94% 29.85 in 2.0 mi ESE 5.8 mph - N/A   Overcast
5:22 PM 57.2 °F 57.2 °F 100% 29.85 in 1.8 mi ESE 5.8 mph - N/A   Overcast
5:29 PM 57.2 °F 57.2 °F 100% 29.85 in 3.0 mi ESE 6.9 mph - N/A   Overcast
5:53 PM 59.0 °F 57.0 °F 93% 29.85 in 4.0 mi ESE 5.8 mph - N/A   Overcast
6:03 PM 59.0 °F 57.2 °F 94% 29.84 in 3.0 mi ESE 5.8 mph - 0.01 in Rain Light Rain
6:22 PM 59.0 °F 57.2 °F 94% 29.84 in 8.0 mi SE 5.8 mph - 0.02 in   Overcast
6:48 PM 59.0 °F 57.2 °F 94% 29.84 in 10.0 mi ESE 5.8 mph - 0.02 in   Overcast
6:53 PM 59.0 °F 57.0 °F 93% 29.84 in 10.0 mi ESE 5.8 mph - 0.02 in   Overcast
7:01 PM 60.8 °F 57.2 °F 88% 29.84 in 8.0 mi SE 5.8 mph - 0.00 in Rain Light Rain
7:53 PM 59.0 °F 57.0 °F 93% 29.84 in 3.0 mi SE 4.6 mph - 0.02 in Rain Light Rain
8:49 PM 57.2 °F 57.2 °F 100% 29.85 in 4.0 mi Calm Calm - 0.00 in   Overcast
8:53 PM 57.9 °F 57.0 °F 97% 29.85 in 4.0 mi Calm Calm - 0.00 in   Overcast
9:10 PM 57.2 °F 57.2 °F 100% 29.85 in 1.8 mi SE 3.5 mph - 0.04 in Rain Heavy Rain
9:25 PM 57.2 °F 57.2 °F 100% 29.85 in 2.0 mi Calm Calm - 0.07 in Rain Light Rain
9:33 PM 57.2 °F 57.2 °F 100% 29.85 in 2.5 mi Calm Calm - 0.07 in Rain Light Rain
9:53 PM 57.9 °F 57.0 °F 97% 29.85 in 1.8 mi Calm Calm - 0.07 in   Overcast
10:04 PM 57.2 °F 57.2 °F 100% 29.85 in 3.0 mi South 3.5 mph - N/A   Overcast
10:13 PM 57.2 °F 57.2 °F 100% 29.85 in 4.0 mi Calm Calm - N/A   Overcast
10:29 PM 57.2 °F 57.2 °F 100% 29.85 in 4.0 mi SSW 3.5 mph - N/A   Overcast
10:42 PM 57.2 °F 55.4 °F 94% 29.85 in 6.0 mi South 3.5 mph - N/A   Overcast
10:53 PM 57.0 °F 55.9 °F 96% 29.86 in 5.0 mi SW 3.5 mph - N/A   Overcast
11:34 PM 57.2 °F 55.4 °F 94% 29.85 in 4.0 mi SSW 3.5 mph - N/A   Overcast
11:43 PM 57.2 °F 55.4 °F 94% 29.85 in 4.0 mi Calm Calm - N/A   Overcast
11:53 PM 57.0 °F 55.9 °F 96% 29.85 in 3.0 mi South 5.8 mph - N/A   Overcast